Location: ???? ??
(36.0534°N, 43.5630°E)
Time: 20:17:24
(UTC+00:00)

DELTA 2 R/B (1) - Pass Details

Date: 18 September 2019
Orbit: 791 x 802 km, 39.6° (Epoch: 20 October)

Event Time Altitude Azimuth Distance (km) Brightness Sun altitude
Rises 17:42:50 0° 261° (W) 3,298 7.5 -30.6°
Reaches altitude 10° 17:45:20 10° 264° (W) 2,369 6.6 -31.0°
Enters shadow 17:49:39 52° 285° (WNW) 983 4.2 -31.8°
